Flag for France Weather past 2 weeks in Besançon, France

Now
63 °F

Partly sunny.


Feels Like: 63 °F
Forecast: 40 / 55 °F
Wind: 7 mph from Southwest

Location: Dole Tavaux

Current Time: Apr 27, 2015 at 2:10:52 PM

Latest Report: Apr 27, 2015 at 1:30 PM


Visibility: N/A

Pressure: 29.53 "Hg

Humidity: 77%

Dew point: 55 °F

Location of BesançonLocation

Historic Weather in Besançon — Graph

°F

Besançon temperature yesterday

Maximum temperature yesterday: 72 °F (at 5:30 PM)
Minimum temperature yesterday: 46 °F (at 4:30 AM)
Average temperature yesterday: 59 °F

Past Weeks' High & Low Weather Summary

 TemperatureHumidityPressure
High77 °F (Apr 15, 6:00 PM)100% (Apr 13, 5:00 AM)30.48 "Hg (Apr 13, 5:00 AM)
Low37 °F (Apr 15, 6:00 AM)18% (Apr 22, 4:30 PM)29.53 "Hg (Apr 27, 8:30 AM)
Average58 °F65%30.07 "Hg
* Reported Apr 12 12:00 Noon — Apr 27 12:30 PM, Besançon, Weather by CustomWeather, © 2015

Note: Actual official high and low records may vary slightly from our data, if they occured in-between our weather recording intervals... More about our weather records

Advertising

Besançon weather history for previous 24 hours

 ConditionsComfort  
Time TempWeatherWind HumidityBarometerVisibility
12:30 PM
Mon, Apr 27
64 °FPartly sunny.8 mph73%29.56 "HgN/A
12:00 PM61 °FBroken clouds.2 mph88%29.56 "HgN/A
11:30 AM59 °FBroken clouds.5 mph94%29.56 "HgN/A
11:00 AM59 °FMostly cloudy.7 mph88%29.56 "HgN/A
10:30 AM57 °FClear.7 mph94%29.56 "HgN/A
10:00 AM57 °FClear.8 mph94%29.53 "HgN/A
9:30 AM57 °FClear.9 mph94%29.53 "HgN/A
9:00 AM55 °FLight rain. Broken clouds.10 mph100%29.53 "HgN/A
8:30 AM55 °FLight rain. More clouds than sun.9 mph94%29.53 "HgN/A
8:00 AM55 °FLight rain. Overcast.8 mph94%29.56 "Hg5 mi
7:30 AM54 °FLight rain. Overcast.6 mph100%29.56 "Hg4 mi
7:00 AM54 °FLight rain. Overcast.6 mph100%29.56 "Hg6 mi
6:30 AM54 °FLight rain. Overcast.6 mph100%29.56 "Hg4 mi
6:00 AM54 °FDrizzle. Overcast.5 mph100%29.56 "HgN/A
5:30 AM54 °FLight rain. Overcast.3 mph100%29.59 "HgN/A
5:00 AM55 °FLight rain. Overcast.3 mph94%29.59 "HgN/A
4:30 AM55 °FLight rain. Overcast.2 mph94%29.59 "HgN/A
4:00 AM55 °FLight rain. Overcast.3 mph94%29.62 "Hg4 mi
3:30 AM54 °FLight rain. Overcast.2 mph100%29.62 "HgN/A
3:00 AM55 °FLight rain. Partly cloudy.2 mph94%29.62 "HgN/A
2:30 AM55 °FRain. Partly cloudy.2 mph94%29.65 "HgN/A
2:00 AM55 °FOvercast.2 mph88%29.65 "HgN/A
1:30 AM55 °FMostly cloudy.1 mph88%29.65 "HgN/A
1:00 AM55 °FPassing clouds.2 mph88%29.65 "HgN/A
12:30 AM57 °FMostly cloudy.1 mph82%29.65 "HgN/A
12:00 AM57 °FClear.No wind82%29.65 "HgN/A
11:30 PM
Sun, Apr 26
59 °FLight rain. Overcast.1 mph77%29.65 "HgN/A
11:00 PM59 °FPartly cloudy.2 mph72%29.68 "HgN/A
10:30 PM61 °FCloudy.3 mph68%29.68 "HgN/A
10:00 PM61 °FCool.3 mph68%29.65 "HgN/A
9:30 PM63 °FClear.5 mph64%29.65 "HgN/A
9:00 PM64 °FMore clouds than sun.13 mph60%29.65 "HgN/A
8:30 PM64 °FClear.7 mph64%29.62 "HgN/A
8:00 PM64 °FClear.7 mph64%29.62 "HgN/A
7:30 PM66 °FClear.8 mph60%29.62 "HgN/A
7:00 PM66 °FClear.8 mph56%29.62 "HgN/A
6:30 PM68 °FClear.13 mph53%29.62 "HgN/A
6:00 PM70 °FClear.12 mph50%29.62 "HgN/A
5:30 PM72 °FClear.13 mph50%29.62 "HgN/A
5:00 PM70 °FBroken clouds.15 mph53%29.65 "HgN/A
4:30 PM70 °FBroken clouds.13 mph57%29.65 "HgN/A
4:00 PM68 °FPartly sunny.15 mph60%29.68 "HgN/A
3:30 PM70 °FPartly sunny.14 mph57%29.68 "HgN/A
3:00 PM68 °FPartly sunny.16 mph60%29.71 "HgN/A
2:30 PM66 °FClear.15 mph60%29.74 "HgN/A
2:00 PM66 °FMostly cloudy.16 mph56%29.74 "HgN/A
Weather by CustomWeather, © 2015

See weather overviewHow to use our weather pages